Tracking 19219 objects as of 21-Jul-2018
HD Live streaming from Space Station
objects crossing your sky now

TOMSK-TPU 120

Track TOMSK-TPU 120 now!
10-day predictions
TOMSK-TPU 120 is classified as:


NORAD ID: 42910
Int'l Code: 1998-067MZ
Perigee: 375.7 km
Apogee: 383.8 km
Inclination: 51.6 °
Period: 92.0 minutes
Semi major axis: 6750 km
RCS: Unknown
Launch date: November 20, 1998
Source: Commonwealth of Independent States (former USSR) (CIS)
Launch site: TYURATAM MISSILE AND SPACE COMPLEX (TTMTR)
Uplink (MHz):
Downlink (MHz): 437.025
Beacon (MHz): 145.800
Mode: 9600bps FSK Voice
Call sign: RS4S
Status: Inactive

aabbcc
Your satellite tracking list
Your tracking list is empty




NASA's NSSDC Master Catalog

Two Line Element Set (TLE):
1 42910U 98067MZ  18202.42810753  .00014881  00000-0  15231-3 0  9996
2 42910  51.6333 192.3976 0005996 349.1795  10.9070 15.65228498 52748
Source of the keplerian elements: AFSPC